Weather History for KLOR - July, 2013

Change the Weather History Date:

Thursday, July 25, 2013

  Actual Average (KDHN) Record (KDHN)
Temperature  
Mean Temperature 81 °F 82 °F  
Max Temperature 91 °F 92 °F 99 °F (1952)
Min Temperature 71 °F 72 °F 68 °F (1947)
Cooling Degree Days 16 17  
Month to date cooling degree days 424  
Year to date cooling degree days 1281  
Since 1 June cooling degree days 868  
Growing Degree Days 31 (Base 50)    
Moisture  
Dew Point 72 °F    
Average Humidity 77    
Maximum Humidity 97    
Minimum Humidity 52    
Precipitation  
Precipitation 0.01 in 0.20 in 1.65 in (1963)
Month to date precipitation 4.82  
Year to date precipitation 32.78  
Sea Level Pressure  
Sea Level Pressure 29.92 in    
Wind  
Wind Speed 2 mph (NNW)    
Max Wind Speed 8 mph    
Max Gust Speed -    
Visibility 10 miles    
Events      
T = Trace of Precipitation, MM = Missing Value Source: NWS Daily Summary

Daily Weather History Graph

Daily Weather History Graph

Search for Another Location

Airport or City:

Trip Planner

Search our weather history database for the weather conditions in past years. The results will help you decide how hot, cold, wet, or windy it might be!

Date:

Astronomy

Jul. 25, 2013 Rise Set
Actual Time 5:55 AM CDT 7:43 PM CDT
Civil Twilight 5:28 AM CDT 8:10 PM CDT
Nautical Twilight 4:56 AM CDT 8:42 PM CDT
Astronomical Twilight 4:21 AM CDT 9:16 PM CDT
Moon 9:43 PM CDT (7/25) 9:06 AM CDT (7/25)
Length of Visible Light 14h 41m
Length of Day
13h 48m
Waning Gibbous, 88% of the Moon is Illuminated
Jul 25
Waning Gibbous
Jul 29
Last Quarter
Aug 6
New
Aug 14
First Quarter
Aug 20
Full

Hourly Weather History & Observations

Time (CDT) Temp. Heat Index Dew Point Humidity Pressure Visibility Wind Dir Wind Speed Gust Speed Precip Events Conditions
12:53 AM 72.0 °F - 71.1 °F 97% 29.87 in 10.0 mi Calm Calm - N/A   Clear
1:53 AM 72.0 °F - 70.0 °F 93% 29.86 in 10.0 mi Calm Calm - N/A   Clear
2:53 AM 71.1 °F - 70.0 °F 96% 29.86 in 9.0 mi Calm Calm - N/A   Mostly Cloudy
3:53 AM 71.1 °F - 70.0 °F 96% 29.87 in 6.0 mi Calm Calm - N/A   Overcast
4:16 AM 71.6 °F - 69.8 °F 94% 29.89 in 10.0 mi Calm Calm - N/A   Scattered Clouds
4:53 AM 71.1 °F - 70.0 °F 96% 29.88 in 10.0 mi Calm Calm - 0.01 in   Partly Cloudy
5:53 AM 71.1 °F - 70.0 °F 96% 29.89 in 10.0 mi NNW 3.5 mph - N/A   Clear
6:53 AM 73.0 °F - 71.1 °F 93% 29.90 in 10.0 mi NNW 4.6 mph - N/A   Clear
7:53 AM 75.9 °F - 72.0 °F 87% 29.91 in 10.0 mi North 8.1 mph - N/A   Clear
8:53 AM 79.0 °F - 72.0 °F 79% 29.92 in 10.0 mi North 6.9 mph - N/A   Mostly Cloudy
9:53 AM 82.0 °F 87.4 °F 73.0 °F 74% 29.93 in 10.0 mi Variable 4.6 mph - N/A   Clear
10:53 AM 84.0 °F 91.2 °F 73.9 °F 72% 29.94 in 10.0 mi East 5.8 mph - N/A   Scattered Clouds
11:53 AM 86.0 °F 93.0 °F 73.0 °F 65% 29.94 in 10.0 mi Calm Calm - N/A   Partly Cloudy
12:33 PM 86.0 °F 93.4 °F 73.4 °F 66% 29.95 in 10.0 mi Calm Calm - N/A   Mostly Cloudy
12:40 PM 87.8 °F 95.6 °F 73.4 °F 62% 29.95 in 10.0 mi Calm Calm - N/A   Mostly Cloudy
12:53 PM 89.1 °F 98.0 °F 73.9 °F 61% 29.94 in 10.0 mi Variable 3.5 mph - N/A   Scattered Clouds
1:53 PM 90.0 °F 97.9 °F 73.0 °F 57% 29.94 in 10.0 mi NW 8.1 mph - N/A   Partly Cloudy
2:53 PM 91.0 °F 98.2 °F 72.0 °F 53% 29.93 in 10.0 mi WNW 8.1 mph - N/A   Partly Cloudy
3:53 PM 91.0 °F 97.6 °F 71.1 °F 52% 29.93 in 10.0 mi Variable 4.6 mph - N/A   Clear
4:53 PM 90.0 °F 96.9 °F 72.0 °F 55% 29.92 in 10.0 mi North 6.9 mph - N/A   Partly Cloudy
5:53 PM 89.1 °F 95.0 °F 71.1 °F 55% 29.92 in 10.0 mi NNW 4.6 mph - N/A   Clear
6:53 PM 87.1 °F 93.6 °F 72.0 °F 61% 29.94 in 10.0 mi NNW 3.5 mph - N/A   Clear
7:53 PM 82.0 °F 87.4 °F 73.0 °F 74% 29.95 in 10.0 mi NNW 4.6 mph - N/A   Clear
8:53 PM 81.0 °F 85.8 °F 73.0 °F 77% 29.96 in 10.0 mi North 4.6 mph - N/A   Clear
9:53 PM 79.0 °F - 73.0 °F 82% 29.97 in 10.0 mi Calm Calm - N/A   Clear
10:53 PM 77.0 °F - 73.0 °F 88% 29.98 in 10.0 mi NNW 3.5 mph - N/A   Clear
11:53 PM 73.9 °F - 73.0 °F 97% 29.98 in 7.0 mi Calm Calm - N/A   Clear